Oklahoma City Wiley Post, OK

6:33 AM CDT on September 23, 2017 (GMT -0500)
Wiley Post

Weather History for KPWA - August, 2013

Change the Weather History Date:

Monday, August 19, 2013

  Actual Average Record
Temperature  
Mean Temperature 79 °F -  
Max Temperature 88 °F 91 °F 102 °F (2011)
Min Temperature 71 °F 68 °F 60 °F (2015)
Cooling Degree Days 14    
Growing Degree Days 29 (Base 50)    
Moisture  
Dew Point 61 °F    
Average Humidity 56    
Maximum Humidity 68    
Minimum Humidity 40    
Precipitation  
Precipitation 0.00 in - - ()
Sea Level Pressure  
Sea Level Pressure 30.01 in    
Wind  
Wind Speed 10 mph (SSE)    
Max Wind Speed 18 mph    
Max Gust Speed 24 mph    
Visibility 8 miles    
Events      
Averages and records for this station are not official NWS values.
T = Trace of Precipitation, MM = Missing Value Source: NWS Daily Summary

Daily Weather History Graph

Daily Weather History Graph

Search for Another Location

Airport or City:

Trip Planner

Search our weather history database for the weather conditions in past years. The results will help you decide how hot, cold, wet, or windy it might be!

Date:

Astronomy

Aug. 19, 2013 Rise Set
Actual Time 6:53 AM CDT 8:14 PM CDT
Civil Twilight 6:26 AM CDT 8:41 PM CDT
Nautical Twilight 5:54 AM CDT 9:13 PM CDT
Astronomical Twilight 5:20 AM CDT 9:46 PM CDT
Moon 7:06 PM CDT (8/19) 5:14 AM CDT (8/19)
Length of Visible Light 14h 14m
Length of Day
13h 21m
Waxing Gibbous, 97% of the Moon is Illuminated
Aug 19
Waxing Gibbous
Aug 20
Full
Aug 28
Last Quarter
Sep 5
New
Sep 12
First Quarter

Hourly Weather History & Observations

Time (CDT) Temp. Heat Index Dew Point Humidity Pressure Visibility Wind Dir Wind Speed Gust Speed Precip Events Conditions
12:53 AM 73.0 °F - 59.0 °F 61% 30.05 in 8.0 mi ESE 5.8 mph - N/A   Clear
1:53 AM 73.0 °F - 59.0 °F 61% 30.04 in 8.0 mi SE 4.6 mph - N/A   Clear
2:53 AM 72.0 °F - 59.0 °F 64% 30.03 in 8.0 mi ESE 5.8 mph - N/A   Clear
3:53 AM 73.0 °F - 59.0 °F 61% 30.01 in 8.0 mi SE 10.4 mph - N/A   Clear
4:53 AM 71.1 °F - 60.1 °F 68% 30.01 in 8.0 mi SE 9.2 mph - N/A   Clear
5:53 AM 71.1 °F - 60.1 °F 68% 30.01 in 7.0 mi SSE 6.9 mph - N/A   Clear
6:53 AM 71.1 °F - 60.1 °F 68% 30.03 in 7.0 mi SSE 11.5 mph - N/A   Mostly Cloudy
7:53 AM 71.1 °F - 60.1 °F 68% 30.04 in 7.0 mi SSE 15.0 mph - N/A   Clear
8:53 AM 72.0 °F - 61.0 °F 68% 30.06 in 6.0 mi South 13.8 mph - N/A   Haze
9:53 AM 75.9 °F - 62.1 °F 62% 30.05 in 6.0 mi SSE 15.0 mph - N/A   Haze
10:53 AM 78.1 °F - 63.0 °F 60% 30.05 in 7.0 mi South 18.4 mph 24.2 mph N/A   Clear
11:53 AM 81.0 °F 82.5 °F 64.0 °F 56% 30.05 in 7.0 mi South 16.1 mph - N/A   Clear
12:53 PM 82.9 °F 84.4 °F 64.0 °F 53% 30.04 in 7.0 mi South 17.3 mph - N/A   Clear
1:53 PM 84.0 °F 84.9 °F 63.0 °F 49% 30.03 in 7.0 mi SSE 12.7 mph - N/A   Scattered Clouds
2:53 PM 86.0 °F 86.8 °F 63.0 °F 46% 30.02 in 7.0 mi South 12.7 mph - N/A   Scattered Clouds
3:53 PM 87.1 °F 87.0 °F 61.0 °F 41% 29.99 in 8.0 mi SSE 15.0 mph - N/A   Partly Cloudy
4:53 PM 87.1 °F 86.7 °F 60.1 °F 40% 29.97 in 8.0 mi SSE 12.7 mph - N/A   Clear
5:53 PM 84.9 °F 85.0 °F 61.0 °F 44% 29.96 in 7.0 mi SSE 13.8 mph - N/A   Clear
6:53 PM 84.9 °F 85.4 °F 62.1 °F 46% 29.95 in 7.0 mi SE 10.4 mph - N/A   Clear
7:53 PM 82.9 °F 83.3 °F 61.0 °F 47% 29.95 in 7.0 mi SE 10.4 mph - N/A   Clear
8:53 PM 80.1 °F 81.2 °F 62.1 °F 54% 29.96 in 8.0 mi SE 8.1 mph - N/A   Clear
9:53 PM 79.0 °F - 61.0 °F 54% 29.98 in 9.0 mi ESE 8.1 mph - N/A   Clear
10:53 PM 78.1 °F - 61.0 °F 56% 29.98 in 9.0 mi SE 8.1 mph - N/A   Clear
11:53 PM 78.1 °F - 61.0 °F 56% 29.99 in 9.0 mi SE 12.7 mph - N/A   Clear